SCP
-0 0 -0 0 0 0 0 0 0 0 0 0 0 0 0 0 0 -0 0 0 0 -0 -0 -0 -0 -0 -0 -0 0 0 -0 -0 -0 -0 0 0 0 0 0 0 0 0 -0 -0 -0 -0 0 0 0
0 0 0 0 0 0 0 0 0 0 -0 0 0 0 0 0 0 0 0 0 0 -0 -0 -0 -0 -0 -0 0 0 0 0 -0 -0 0 0 0 0 0 0 0 0 0 0 -0 -0 -0 -0 0 0
0 0 0 0 0 0 0 0 0 0 0 0 0 0 0 0 0 0 0 0 0 0 0 -0 -0 -0 0 0 0 0 0 0 0 0 0 0 0 0 0 0 0 0 0 -0 -0 -0 0 0 0
0 0 0 0 0 0 0 0 0 0 0 0 0 0 0 0 0 0 0 0 0 0 0 0 0 0 0 0 0 0 0 0 0 0 0 0 0 0 0 0 0 0 0 0 -0 0 0 0 0
0 0 0 0 0 0 0 0 0 0 0 0 0 0 0 0 0 0 0 0 0 0 0 0 0 0 0 0 0 0 0 0 0 0 0 0 0 0 0 0 0 0 0 0 0 0 0 0 0
0 0 0 0 0 0 0 0 0 0 0 0 0 0 0 0 0 0 0 0 0 0 0 0 0 0 0 0 0 0 0 0 0 0 0 0 0 0 0 0 0 0 0 0 0 0 0 0 0
0 0 0 0 0 0 0 0 0 0 0 0 0 0 0 0 0 0 0 0 0 0 0 0 0 0 0 0 0 0 0 0 0 0 0 0 0 0 0 0 0 0 0 0 0 0 0 0 0
0 0 0 0 0 0 0 0 0 0 0 0 0 0 0 0 0 0 0 0 0 0 0 0 0 0 0 0 0 0 0 0 0 0 0 0 0 0 0 0 0 0 0 0 0 0 0 0 0
0 0 0 0 0 0 0 0 0 0 0 0 0 0 0 0 0 0 0 0 0 0 0 0 0 0 0 0 0 0 0 0 0 0 0 0 0 0 0 0 0 0 0 0 0 0 0 0 0
0 0 0 0 0 0 0 0 0 0 0 0 0 0 0 0 0 0 0 0 0 0 0 0 0 0 0 0 0 0 0 0 0 0 0 0 0 0 0 0 0 0 0 0 0 0 0 0 0
0 0 0 0 0 0 0 0 0 -0 -0 0 0 -0 0 0 0 0 0 0 0 0 0 0 0 0 0 0 0 0 0 0 0 0 0 0 0 0 0 0 0 0 0 0 0 0 0 0 0
0 0 0 0 0 0 0 0 0 -0 0 0 0 -0 -0 -0 0 0 0 0 0 0 0 0 0 0 0 0 0 0 0 0 0 0 0 0 0 0 0 0 0 0 0 0 0 0 0 0 0
-0 -0 -0 -0 -0 0 -0 -0 -0 -0 -0 -0 0 0 0 0 0 0 0 0 0 0 0 0 0 0 0 0 0 0 0 0 0 0 0 0 0 0 0 0 0 0 0 0 0 0 0 0 0
-0 -0 -0 -0 -0 0 0 -0 -0 0 -0 -0 0 0 0 0 0 0 0 0 0 0 0 0 0 0 0 0 0 0 0 0 0 0 0 0 0 0 0 0 0 0 0 0 0 0 0 0 0
-0 -0 -0 -0 -0 -0 -0 -0 -0 -0 -0 -0 -0 0 0 0 0 0 0 0 0 0 0 0 0 0 0 0 0 0 0 0 0 0 0 0 0 0 0 0 0 0 0 0 0 0 0 0 0
-0 -0 -0 0 0 0 -0 -0 -0 -0 -0 -0 -0 -0 -0 0 0 0 0 0 0 0 0 0 0 0 0 0 0 0 0 0 0 0 0 0 0 0 0 0 0 0 0 0 0 0 0 0 0
-0 -0 -0 -0 0 0 -0 -0 -0 -0 -0 -0 -0 -0 -0 -0 -0 0 0 0 0 0 0 0 0 0 0 0 0 0 0 0 0 0 0 0 0 0 0 0 0 0 0 0 0 0 0 0 0
-0 -0 -0 -0 0 0 0 -0 -0 -0 -0 -0 -0 -0 -0 -0 -0 0 0 0 0 0 0 0 0 0 0 0 0 0 0 0 0 0 0 0 0 0 0 0 0 0 0 0 0 0 0 0 0
-0 0 0 0 0 0 0 0 -0 0 -0 -0 -0 -0 -0 -0 0 0 0 0 0 0 0 0 0 0 0 0 0 0 0 0 0 0 0 0 0 0 0 0 0 0 0 0 0 0 0 0 0
-0 -0 0 0 0 0 0 -0 -0 -0 0 -0 -0 -0 -0 -0 0 0 0 0 -0 -0 -0 0 0 0 0 0 0 0 0 0 0 0 0 0 0 0 0 0 0 0 0 0 0 0 0 0 0
0 0 0 0 0 0 0 0 0 0 0 0 0 0 -0 0 0 0 0 0 0 -0 -0 -0 -0 0 0 0 0 0 0 0 0 0 0 0 0 0 0 0 0 0 0 0 0 0 0 0 0
0 0 0 0 0 0 0 0 0 0 0 0 0 0 0 0 0 0 0 0 0 0 -0 -0 -0 -0 -0 -0 0 0 0 0 0 0 0 0 0 0 0 0 0 0 0 0 0 0 0 0 0
0 0 0 0 0 0 0 0 0 0 0 0 0 0 0 0 0 0 0 0 0 0 -0 -0 -0 -0 -0 -0 -0 -0 -0 0 0 0 0 0 0 0 0 0 0 0 0 0 0 0 0 0 0
0 0 0 0 0 0 0 0 0 0 0 0 0 0 0 0 0 0 0 0 0 0 0 -0 -0 -0 -0 -0 -0 -0 -0 -0 0 0 0 0 0 0 0 0 0 0 0 0 0 0 0 0 0
0 0 0 0 0 0 0 0 0 0 0 0 0 0 0 0 0 0 0 0 0 0 0 0 -0 -0 -0 -0 -0 -0 -0 -0 -0 0 -0 0 0 0 0 0 0 0 0 0 0 0 0 0 0
0 0 0 0 0 0 0 0 0 0 0 0 0 0 0 0 0 0 0 0 0 0 0 0 0 -0 -0 -0 -0 -0 -0 -0 -0 -0 -0 -0 0 0 0 0 0 0 0 0 0 0 0 0 0
0 0 0 0 0 0 0 0 0 0 0 0 0 0 0 0 0 0 0 0 0 0 0 0 0 0 0 0 -0 -0 -0 -0 -0 -0 -0 -0 -0 0 0 0 0 0 0 0 0 0 0 0 0
0 0 0 0 0 0 0 0 0 0 0 0 0 0 0 0 0 0 0 0 0 0 0 0 0 0 0 0 0 0 -0 -0 -0 -0 -0 -0 -0 0 0 0 0 0 0 0 0 0 0 0 0
0 0 0 0 0 0 0 0 0 0 0 0 0 0 0 0 0 0 0 0 0 0 0 0 0 0 0 0 0 0 0 -0 -0 -0 -0 -0 -0 -0 0 0 0 0 0 0 0 0 0 0 0
0 0 0 0 0 0 0 0 0 0 0 0 0 0 0 0 0 0 0 0 0 0 0 0 0 0 0 0 0 0 0 -0 -0 -0 -0 -0 -0 0 -0 0 0 0 0 0 0 0 0 0 0
Wind_Speed_500mb
10 10 5 4 7 6 5 1 8 7 15 11 21 15 17 20 11 12 12 11 15 31 43 47 41 42 40 38 37 39 37 36 33 28 23 20 17 18 19 24 26 24 23 24 26 20 29 32 32
12 8 2 3 7 10 1 5 11 4 29 26 10 15 16 16 11 16 13 13 14 31 42 46 43 43 41 39 37 41 41 38 36 30 23 18 15 17 21 24 25 25 24 26 27 22 29 27 28
14 8 5 4 5 10 4 6 12 9 29 21 15 19 18 13 15 12 15 16 17 33 41 43 40 42 42 40 39 44 44 39 37 29 21 17 14 16 22 25 27 27 26 26 25 24 26 24 24
7 4 1 11 16 8 6 11 15 22 25 22 24 21 16 15 17 20 30 21 21 34 40 41 39 41 42 39 41 46 48 44 42 33 27 18 15 17 24 26 27 27 27 27 28 28 27 25 24
0 3 11 10 12 6 7 18 22 21 20 24 19 21 22 28 43 48 38 25 24 34 38 39 40 41 43 40 45 52 50 49 46 39 28 20 17 15 23 26 27 25 27 27 28 27 27 26 24
6 2 13 19 11 4 8 32 19 24 16 14 6 18 9 30 47 54 41 26 24 32 39 40 42 43 43 42 51 51 51 55 52 42 32 24 20 16 22 26 28 29 29 27 27 27 26 24 23
13 12 22 21 19 15 11 39 23 28 31 18 27 22 9 34 52 52 37 29 29 31 39 41 45 47 47 47 56 53 56 58 53 42 32 28 24 20 20 23 29 30 29 30 29 28 26 24 22
8 7 10 10 15 8 21 35 18 28 20 36 25 19 40 50 60 52 42 33 34 37 42 40 42 46 52 52 60 60 61 58 53 50 42 34 28 25 23 24 27 29 30 32 31 29 27 26 23
10 9 12 6 9 12 30 25 24 28 28 35 14 24 43 60 55 53 44 39 42 44 49 47 46 44 45 47 61 68 65 62 57 53 42 38 34 30 29 27 30 32 32 33 32 31 29 29 27
2 6 7 12 10 14 26 24 30 25 45 44 39 46 54 57 52 48 45 42 39 49 56 58 55 52 47 47 49 72 72 66 62 59 52 47 41 37 33 30 29 35 34 34 35 35 34 32 31
10 6 8 8 14 13 18 24 17 29 25 23 49 66 64 60 54 49 46 43 45 45 57 64 67 63 60 60 49 56 63 76 68 65 63 55 46 45 42 39 37 38 39 41 42 41 39 36 34
11 10 5 6 15 9 18 27 26 30 31 28 45 56 59 57 56 56 55 51 48 48 58 63 68 68 66 67 67 57 60 74 79 75 70 65 60 53 49 46 42 41 44 47 46 45 42 39 39
15 8 10 10 20 9 29 29 13 20 14 49 54 53 55 56 58 56 54 54 50 49 53 60 66 76 71 63 79 81 66 77 82 78 75 83 67 61 56 52 48 46 47 50 51 49 46 44 42
9 6 4 18 25 5 39 22 12 26 41 48 49 55 58 55 55 57 54 56 52 52 54 60 65 66 74 73 71 86 82 84 89 80 84 80 77 71 63 59 54 50 50 52 53 52 50 48 45
10 6 7 21 26 14 51 6 19 35 46 49 49 50 55 55 53 50 53 54 53 53 53 54 71 73 72 74 81 85 89 92 96 98 95 90 81 78 70 62 59 55 53 55 55 56 54 52 48
6 3 4 9 25 13 31 18 18 36 35 41 39 42 50 56 50 48 52 51 42 47 48 47 56 82 80 75 75 90 94 93 96 97 94 92 89 85 81 70 64 57 57 58 57 55 52 49 46
9 1 4 6 2 17 12 17 36 36 31 36 32 36 46 47 50 53 55 49 43 38 43 32 38 69 82 73 76 89 97 95 93 93 89 90 97 90 90 78 70 62 61 61 60 56 48 37 39
8 7 8 10 8 28 9 25 31 25 26 31 23 28 39 43 45 48 54 62 59 48 52 40 32 39 71 85 88 93 99 97 92 94 95 95 101 91 96 83 75 70 66 63 63 58 52 50 41
6 10 15 7 3 25 15 30 24 20 19 30 28 32 37 31 35 42 50 54 66 69 51 54 43 42 52 77 84 92 89 100 91 99 96 99 98 97 96 89 82 74 73 66 59 52 49 46 48
11 16 15 23 8 18 17 39 21 16 9 22 28 34 37 34 34 41 48 50 54 65 63 58 73 63 65 62 42 84 77 87 85 98 95 102 96 102 100 95 90 83 74 69 65 61 53 47 41
7 15 21 16 29 8 27 11 11 9 11 12 27 31 40 36 34 41 51 54 54 54 64 70 64 79 104 82 79 57 72 65 89 101 102 99 97 102 105 99 95 90 84 75 70 72 66 49 49
6 7 25 28 15 8 19 12 6 6 18 14 29 38 44 37 39 46 55 59 61 56 56 55 62 56 68 97 115 115 101 51 71 78 101 102 103 99 106 103 99 93 87 82 79 74 69 56 50
10 30 21 11 9 9 1 8 9 9 12 18 24 34 41 39 38 47 54 62 61 53 63 60 61 61 57 60 70 93 112 100 92 54 99 109 108 104 96 103 100 93 90 87 86 82 73 68 60
29 13 8 6 4 5 8 9 13 8 10 16 20 30 39 45 50 53 55 59 57 58 63 61 62 67 65 59 59 60 75 96 93 90 71 88 102 91 92 91 97 94 91 88 86 83 77 69 65
22 11 6 5 5 8 9 16 26 17 14 17 21 28 35 45 56 58 60 62 63 69 73 74 61 65 68 64 59 56 61 75 80 90 92 68 83 96 88 88 93 96 95 88 84 82 79 73 74
10 9 6 10 9 20 11 15 7 12 17 34 28 25 31 51 58 60 62 66 68 67 62 62 63 65 64 63 59 53 53 64 73 75 79 90 86 99 91 85 87 93 93 94 88 81 83 82 81
4 5 4 4 1 9 8 12 29 15 12 13 23 25 39 57 60 66 68 69 70 69 62 60 60 59 60 60 61 59 49 58 60 62 75 91 92 80 102 95 74 82 86 94 97 94 88 85 87
3 12 2 2 9 13 15 16 20 23 17 21 32 45 56 61 68 73 72 71 71 69 63 58 54 59 56 63 58 60 54 48 53 52 59 78 84 97 88 90 71 70 82 85 93 99 95 90 86
9 7 3 3 5 6 12 18 15 25 21 20 34 52 66 64 68 75 75 78 72 66 60 57 59 58 56 60 61 53 57 46 45 46 50 61 65 71 69 96 83 71 88 79 84 90 98 92 86
3 8 13 6 8 9 6 23 13 21 20 21 45 71 72 67 72 73 70 72 71 68 58 60 62 56 60 58 59 45 49 55 40 38 44 54 56 53 62 39 70 80 66 60 93 91 85 85 79
Wind_Direction_500mb
340 345 351 2 251 264 262 238 297 326 352 337 305 283 313 304 305 328 330 228 214 198 193 196 200 197 195 193 196 194 195 192 190 203 200 188 192 196 197 169 162 164 160 162 163 152 137 141 152
352 352 58 138 253 260 2 336 266 44 350 343 329 312 278 289 275 287 304 239 217 199 196 197 202 199 198 196 198 198 191 195 203 210 209 198 205 204 192 183 172 159 161 164 158 158 146 142 144
353 354 272 248 230 254 287 60 2 276 332 351 348 331 313 317 331 313 291 245 219 201 199 199 206 203 201 203 201 196 188 192 198 201 211 208 213 211 199 181 174 172 168 163 166 166 155 154 152
0 324 100 245 233 218 248 338 345 308 317 324 330 314 323 314 331 314 320 276 230 206 204 211 209 206 207 205 200 191 187 191 196 212 211 219 222 220 205 183 174 180 173 169 170 167 165 164 164
318 283 257 256 267 304 297 343 332 318 324 338 344 326 319 2 360 345 315 277 240 212 209 216 212 211 210 208 199 189 189 192 196 211 226 225 223 223 209 187 187 184 178 176 176 177 179 178 175
202 234 253 266 270 304 26 357 326 334 328 7 21 338 343 359 352 348 336 294 244 219 218 218 215 213 214 208 198 196 193 196 202 211 220 225 224 222 214 197 196 191 188 187 186 189 194 192 188
229 225 258 273 275 283 23 351 20 350 337 7 324 314 305 5 354 350 332 302 270 231 225 219 219 216 214 211 203 203 200 203 208 212 219 222 223 224 218 212 203 196 194 195 196 197 200 204 207
164 239 244 249 283 286 2 345 333 346 317 328 347 354 336 330 333 337 338 299 269 250 231 226 221 219 217 214 208 207 208 212 215 219 215 214 221 225 224 223 219 202 201 202 204 205 207 211 215
134 218 253 278 351 335 337 343 321 316 284 319 314 337 323 319 329 323 325 319 287 256 240 228 230 224 221 218 214 212 213 216 220 223 219 208 216 222 225 228 223 215 210 209 210 212 215 219 221
16 231 77 64 13 321 318 323 323 322 314 309 315 323 328 325 331 325 316 307 296 276 254 239 232 230 225 224 221 215 215 219 222 223 225 220 217 224 228 231 228 222 219 217 217 219 220 223 227
26 82 127 47 12 326 312 300 310 309 297 330 329 325 327 327 325 322 320 306 291 278 266 251 242 234 229 225 224 221 218 218 220 222 227 223 218 223 223 226 225 225 222 221 220 223 225 226 229
105 86 73 40 347 324 322 308 301 291 304 326 322 320 321 321 319 318 318 313 302 282 276 265 248 241 233 232 228 224 221 221 220 226 226 224 221 224 225 227 229 230 229 224 224 225 228 229 231
77 98 67 1 352 41 336 317 319 314 318 326 326 328 328 324 320 314 311 310 311 291 271 270 260 247 237 232 235 232 225 225 223 226 226 229 225 228 229 232 233 234 231 227 229 229 231 232 235
42 50 88 15 351 356 350 313 337 4 332 338 341 339 336 331 325 319 315 309 310 304 288 267 258 256 241 238 238 240 231 230 223 225 225 225 230 229 230 234 235 237 235 231 229 230 233 234 236
24 102 136 19 347 350 341 106 8 348 343 346 351 351 348 342 335 327 322 314 307 307 300 282 260 258 252 248 247 244 240 235 230 226 229 230 230 233 233 235 239 241 237 233 232 230 232 235 239
44 65 309 39 358 350 341 2 18 351 341 341 349 357 356 352 348 339 335 331 326 320 308 299 273 259 264 256 252 249 241 239 236 231 231 231 232 235 237 237 239 242 240 235 231 229 232 235 237
40 103 302 307 231 328 350 316 332 341 340 340 351 360 358 359 359 356 353 343 325 331 325 290 278 266 260 265 253 249 242 242 238 236 230 232 233 234 237 238 243 244 240 235 231 229 228 234 238
5 329 263 263 336 333 298 293 314 336 343 342 346 359 353 354 360 2 3 6 356 301 293 314 290 282 258 256 250 240 235 237 243 241 237 233 236 234 237 239 242 244 241 234 232 231 232 235 234
296 291 309 288 197 333 316 308 308 320 339 354 338 331 340 338 347 356 360 356 358 3 297 283 314 302 341 251 242 241 238 235 244 245 238 239 238 237 236 240 242 241 240 236 232 232 229 233 231
276 314 345 294 273 328 305 304 289 281 318 355 337 330 328 330 331 340 347 351 350 347 356 337 284 298 315 330 293 251 251 246 252 247 246 235 239 239 238 239 241 243 240 236 236 232 230 229 227
258 348 341 308 312 230 311 250 256 224 294 325 343 337 336 327 320 329 334 336 338 337 337 342 340 293 284 300 311 331 252 256 241 243 243 244 242 240 238 239 240 242 242 240 239 236 229 225 226
299 0 315 303 307 324 359 297 289 261 310 302 339 338 339 328 320 321 326 327 328 324 322 326 327 337 325 279 288 294 304 299 249 250 251 246 243 242 237 238 238 241 242 241 239 236 233 224 223
276 326 303 280 273 308 34 290 261 279 307 337 338 328 328 329 321 320 320 321 322 318 317 317 318 310 310 321 295 290 290 295 299 301 250 247 248 244 238 236 238 237 238 239 240 237 234 232 229
298 298 215 203 260 262 127 8 268 228 310 320 326 322 323 328 321 318 319 323 324 322 318 315 316 311 305 303 303 293 289 290 293 296 287 247 243 248 239 236 235 234 233 236 234 237 237 235 236
356 309 324 316 338 290 169 295 264 257 274 272 292 296 307 323 324 321 319 319 318 318 318 314 316 310 303 298 293 299 293 288 281 287 296 287 241 236 244 234 231 232 230 233 233 230 234 232 236
27 352 37 302 311 300 209 238 251 282 274 285 274 270 291 317 322 320 318 317 315 314 310 312 310 313 305 300 286 284 293 285 280 280 290 287 289 241 243 241 232 230 232 232 233 231 231 229 232
87 71 19 286 33 290 249 274 276 296 261 242 273 289 308 321 323 323 320 318 315 314 308 307 304 310 304 307 296 276 275 281 288 283 273 292 291 285 249 240 235 232 231 232 233 235 235 234 232
12 127 176 96 304 291 283 286 257 281 302 326 313 311 317 320 321 324 323 320 316 314 309 307 303 304 301 302 305 285 273 274 286 285 271 266 293 294 244 240 237 236 232 229 232 234 236 239 238
152 171 135 291 215 268 305 285 242 280 291 296 303 308 311 316 317 319 320 320 317 315 309 306 308 302 301 298 306 289 280 277 273 280 281 265 279 292 296 239 237 242 238 234 230 234 235 236 238
322 194 188 212 198 221 256 269 289 276 295 305 306 310 310 313 315 317 317 319 317 316 309 305 306 298 297 296 305 296 289 288 279 276 269 255 260 265 277 278 231 229 234 243 241 227 232 233 234
Wind_Speed_850mb
10 10 5 4 7 6 5 1 8 7 15 11 21 15 17 20 11 12 12 11 15 31 43 47 41 42 40 38 37 39 37 36 33 28 23 20 17 18 19 24 26 24 23 24 26 20 29 32 32
12 8 2 3 7 10 1 5 11 4 29 26 10 15 16 16 11 16 13 13 14 31 42 46 43 43 41 39 37 41 41 38 36 30 23 18 15 17 21 24 25 25 24 26 27 22 29 27 28
14 8 5 4 5 10 4 6 12 9 29 21 15 19 18 13 15 12 15 16 17 33 41 43 40 42 42 40 39 44 44 39 37 29 21 17 14 16 22 25 27 27 26 26 25 24 26 24 24
7 4 1 11 16 8 6 11 15 22 25 22 24 21 16 15 17 20 30 21 21 34 40 41 39 41 42 39 41 46 48 44 42 33 27 18 15 17 24 26 27 27 27 27 28 28 27 25 24
0 3 11 10 12 6 7 18 22 21 20 24 19 21 22 28 43 48 38 25 24 34 38 39 40 41 43 40 45 52 50 49 46 39 28 20 17 15 23 26 27 25 27 27 28 27 27 26 24
6 2 13 19 11 4 8 32 19 24 16 14 6 18 9 30 47 54 41 26 24 32 39 40 42 43 43 42 51 51 51 55 52 42 32 24 20 16 22 26 28 29 29 27 27 27 26 24 23
13 12 22 21 19 15 11 39 23 28 31 18 27 22 9 34 52 52 37 29 29 31 39 41 45 47 47 47 56 53 56 58 53 42 32 28 24 20 20 23 29 30 29 30 29 28 26 24 22
8 7 10 10 15 8 21 35 18 28 20 36 25 19 40 50 60 52 42 33 34 37 42 40 42 46 52 52 60 60 61 58 53 50 42 34 28 25 23 24 27 29 30 32 31 29 27 26 23
10 9 12 6 9 12 30 25 24 28 28 35 14 24 43 60 55 53 44 39 42 44 49 47 46 44 45 47 61 68 65 62 57 53 42 38 34 30 29 27 30 32 32 33 32 31 29 29 27
2 6 7 12 10 14 26 24 30 25 45 44 39 46 54 57 52 48 45 42 39 49 56 58 55 52 47 47 49 72 72 66 62 59 52 47 41 37 33 30 29 35 34 34 35 35 34 32 31
10 6 8 8 14 13 18 24 17 29 25 23 49 66 64 60 54 49 46 43 45 45 57 64 67 63 60 60 49 56 63 76 68 65 63 55 46 45 42 39 37 38 39 41 42 41 39 36 34
11 10 5 6 15 9 18 27 26 30 31 28 45 56 59 57 56 56 55 51 48 48 58 63 68 68 66 67 67 57 60 74 79 75 70 65 60 53 49 46 42 41 44 47 46 45 42 39 39
15 8 10 10 20 9 29 29 13 20 14 49 54 53 55 56 58 56 54 54 50 49 53 60 66 76 71 63 79 81 66 77 82 78 75 83 67 61 56 52 48 46 47 50 51 49 46 44 42
9 6 4 18 25 5 39 22 12 26 41 48 49 55 58 55 55 57 54 56 52 52 54 60 65 66 74 73 71 86 82 84 89 80 84 80 77 71 63 59 54 50 50 52 53 52 50 48 45
10 6 7 21 26 14 51 6 19 35 46 49 49 50 55 55 53 50 53 54 53 53 53 54 71 73 72 74 81 85 89 92 96 98 95 90 81 78 70 62 59 55 53 55 55 56 54 52 48
6 3 4 9 25 13 31 18 18 36 35 41 39 42 50 56 50 48 52 51 42 47 48 47 56 82 80 75 75 90 94 93 96 97 94 92 89 85 81 70 64 57 57 58 57 55 52 49 46
9 1 4 6 2 17 12 17 36 36 31 36 32 36 46 47 50 53 55 49 43 38 43 32 38 69 82 73 76 89 97 95 93 93 89 90 97 90 90 78 70 62 61 61 60 56 48 37 39
8 7 8 10 8 28 9 25 31 25 26 31 23 28 39 43 45 48 54 62 59 48 52 40 32 39 71 85 88 93 99 97 92 94 95 95 101 91 96 83 75 70 66 63 63 58 52 50 41
6 10 15 7 3 25 15 30 24 20 19 30 28 32 37 31 35 42 50 54 66 69 51 54 43 42 52 77 84 92 89 100 91 99 96 99 98 97 96 89 82 74 73 66 59 52 49 46 48
11 16 15 23 8 18 17 39 21 16 9 22 28 34 37 34 34 41 48 50 54 65 63 58 73 63 65 62 42 84 77 87 85 98 95 102 96 102 100 95 90 83 74 69 65 61 53 47 41
7 15 21 16 29 8 27 11 11 9 11 12 27 31 40 36 34 41 51 54 54 54 64 70 64 79 104 82 79 57 72 65 89 101 102 99 97 102 105 99 95 90 84 75 70 72 66 49 49
6 7 25 28 15 8 19 12 6 6 18 14 29 38 44 37 39 46 55 59 61 56 56 55 62 56 68 97 115 115 101 51 71 78 101 102 103 99 106 103 99 93 87 82 79 74 69 56 50
10 30 21 11 9 9 1 8 9 9 12 18 24 34 41 39 38 47 54 62 61 53 63 60 61 61 57 60 70 93 112 100 92 54 99 109 108 104 96 103 100 93 90 87 86 82 73 68 60
29 13 8 6 4 5 8 9 13 8 10 16 20 30 39 45 50 53 55 59 57 58 63 61 62 67 65 59 59 60 75 96 93 90 71 88 102 91 92 91 97 94 91 88 86 83 77 69 65
22 11 6 5 5 8 9 16 26 17 14 17 21 28 35 45 56 58 60 62 63 69 73 74 61 65 68 64 59 56 61 75 80 90 92 68 83 96 88 88 93 96 95 88 84 82 79 73 74
10 9 6 10 9 20 11 15 7 12 17 34 28 25 31 51 58 60 62 66 68 67 62 62 63 65 64 63 59 53 53 64 73 75 79 90 86 99 91 85 87 93 93 94 88 81 83 82 81
4 5 4 4 1 9 8 12 29 15 12 13 23 25 39 57 60 66 68 69 70 69 62 60 60 59 60 60 61 59 49 58 60 62 75 91 92 80 102 95 74 82 86 94 97 94 88 85 87
3 12 2 2 9 13 15 16 20 23 17 21 32 45 56 61 68 73 72 71 71 69 63 58 54 59 56 63 58 60 54 48 53 52 59 78 84 97 88 90 71 70 82 85 93 99 95 90 86
9 7 3 3 5 6 12 18 15 25 21 20 34 52 66 64 68 75 75 78 72 66 60 57 59 58 56 60 61 53 57 46 45 46 50 61 65 71 69 96 83 71 88 79 84 90 98 92 86
3 8 13 6 8 9 6 23 13 21 20 21 45 71 72 67 72 73 70 72 71 68 58 60 62 56 60 58 59 45 49 55 40 38 44 54 56 53 62 39 70 80 66 60 93 91 85 85 79
Wind_Direction_850mb
340 345 351 2 251 264 262 238 297 326 352 337 305 283 313 304 305 328 330 228 214 198 193 196 200 197 195 193 196 194 195 192 190 203 200 188 192 196 197 169 162 164 160 162 163 152 137 141 152
352 352 58 138 253 260 2 336 266 44 350 343 329 312 278 289 275 287 304 239 217 199 196 197 202 199 198 196 198 198 191 195 203 210 209 198 205 204 192 183 172 159 161 164 158 158 146 142 144
353 354 272 248 230 254 287 60 2 276 332 351 348 331 313 317 331 313 291 245 219 201 199 199 206 203 201 203 201 196 188 192 198 201 211 208 213 211 199 181 174 172 168 163 166 166 155 154 152
0 324 100 245 233 218 248 338 345 308 317 324 330 314 323 314 331 314 320 276 230 206 204 211 209 206 207 205 200 191 187 191 196 212 211 219 222 220 205 183 174 180 173 169 170 167 165 164 164
318 283 257 256 267 304 297 343 332 318 324 338 344 326 319 2 360 345 315 277 240 212 209 216 212 211 210 208 199 189 189 192 196 211 226 225 223 223 209 187 187 184 178 176 176 177 179 178 175
202 234 253 266 270 304 26 357 326 334 328 7 21 338 343 359 352 348 336 294 244 219 218 218 215 213 214 208 198 196 193 196 202 211 220 225 224 222 214 197 196 191 188 187 186 189 194 192 188
229 225 258 273 275 283 23 351 20 350 337 7 324 314 305 5 354 350 332 302 270 231 225 219 219 216 214 211 203 203 200 203 208 212 219 222 223 224 218 212 203 196 194 195 196 197 200 204 207
164 239 244 249 283 286 2 345 333 346 317 328 347 354 336 330 333 337 338 299 269 250 231 226 221 219 217 214 208 207 208 212 215 219 215 214 221 225 224 223 219 202 201 202 204 205 207 211 215
134 218 253 278 351 335 337 343 321 316 284 319 314 337 323 319 329 323 325 319 287 256 240 228 230 224 221 218 214 212 213 216 220 223 219 208 216 222 225 228 223 215 210 209 210 212 215 219 221
16 231 77 64 13 321 318 323 323 322 314 309 315 323 328 325 331 325 316 307 296 276 254 239 232 230 225 224 221 215 215 219 222 223 225 220 217 224 228 231 228 222 219 217 217 219 220 223 227
26 82 127 47 12 326 312 300 310 309 297 330 329 325 327 327 325 322 320 306 291 278 266 251 242 234 229 225 224 221 218 218 220 222 227 223 218 223 223 226 225 225 222 221 220 223 225 226 229
105 86 73 40 347 324 322 308 301 291 304 326 322 320 321 321 319 318 318 313 302 282 276 265 248 241 233 232 228 224 221 221 220 226 226 224 221 224 225 227 229 230 229 224 224 225 228 229 231
77 98 67 1 352 41 336 317 319 314 318 326 326 328 328 324 320 314 311 310 311 291 271 270 260 247 237 232 235 232 225 225 223 226 226 229 225 228 229 232 233 234 231 227 229 229 231 232 235
42 50 88 15 351 356 350 313 337 4 332 338 341 339 336 331 325 319 315 309 310 304 288 267 258 256 241 238 238 240 231 230 223 225 225 225 230 229 230 234 235 237 235 231 229 230 233 234 236
24 102 136 19 347 350 341 106 8 348 343 346 351 351 348 342 335 327 322 314 307 307 300 282 260 258 252 248 247 244 240 235 230 226 229 230 230 233 233 235 239 241 237 233 232 230 232 235 239
44 65 309 39 358 350 341 2 18 351 341 341 349 357 356 352 348 339 335 331 326 320 308 299 273 259 264 256 252 249 241 239 236 231 231 231 232 235 237 237 239 242 240 235 231 229 232 235 237
40 103 302 307 231 328 350 316 332 341 340 340 351 360 358 359 359 356 353 343 325 331 325 290 278 266 260 265 253 249 242 242 238 236 230 232 233 234 237 238 243 244 240 235 231 229 228 234 238
5 329 263 263 336 333 298 293 314 336 343 342 346 359 353 354 360 2 3 6 356 301 293 314 290 282 258 256 250 240 235 237 243 241 237 233 236 234 237 239 242 244 241 234 232 231 232 235 234
296 291 309 288 197 333 316 308 308 320 339 354 338 331 340 338 347 356 360 356 358 3 297 283 314 302 341 251 242 241 238 235 244 245 238 239 238 237 236 240 242 241 240 236 232 232 229 233 231
276 314 345 294 273 328 305 304 289 281 318 355 337 330 328 330 331 340 347 351 350 347 356 337 284 298 315 330 293 251 251 246 252 247 246 235 239 239 238 239 241 243 240 236 236 232 230 229 227
258 348 341 308 312 230 311 250 256 224 294 325 343 337 336 327 320 329 334 336 338 337 337 342 340 293 284 300 311 331 252 256 241 243 243 244 242 240 238 239 240 242 242 240 239 236 229 225 226
299 0 315 303 307 324 359 297 289 261 310 302 339 338 339 328 320 321 326 327 328 324 322 326 327 337 325 279 288 294 304 299 249 250 251 246 243 242 237 238 238 241 242 241 239 236 233 224 223
276 326 303 280 273 308 34 290 261 279 307 337 338 328 328 329 321 320 320 321 322 318 317 317 318 310 310 321 295 290 290 295 299 301 250 247 248 244 238 236 238 237 238 239 240 237 234 232 229
298 298 215 203 260 262 127 8 268 228 310 320 326 322 323 328 321 318 319 323 324 322 318 315 316 311 305 303 303 293 289 290 293 296 287 247 243 248 239 236 235 234 233 236 234 237 237 235 236
356 309 324 316 338 290 169 295 264 257 274 272 292 296 307 323 324 321 319 319 318 318 318 314 316 310 303 298 293 299 293 288 281 287 296 287 241 236 244 234 231 232 230 233 233 230 234 232 236
27 352 37 302 311 300 209 238 251 282 274 285 274 270 291 317 322 320 318 317 315 314 310 312 310 313 305 300 286 284 293 285 280 280 290 287 289 241 243 241 232 230 232 232 233 231 231 229 232
87 71 19 286 33 290 249 274 276 296 261 242 273 289 308 321 323 323 320 318 315 314 308 307 304 310 304 307 296 276 275 281 288 283 273 292 291 285 249 240 235 232 231 232 233 235 235 234 232
12 127 176 96 304 291 283 286 257 281 302 326 313 311 317 320 321 324 323 320 316 314 309 307 303 304 301 302 305 285 273 274 286 285 271 266 293 294 244 240 237 236 232 229 232 234 236 239 238
152 171 135 291 215 268 305 285 242 280 291 296 303 308 311 316 317 319 320 320 317 315 309 306 308 302 301 298 306 289 280 277 273 280 281 265 279 292 296 239 237 242 238 234 230 234 235 236 238
322 194 188 212 198 221 256 269 289 276 295 305 306 310 310 313 315 317 317 319 317 316 309 305 306 298 297 296 305 296 289 288 279 276 269 255 260 265 277 278 231 229 234 243 241 227 232 233 234